GFSNIL_prec_precacc6_132.txt.gz
Total_Precipitation_Accumulation
0.13 0.13 0.06 0.06 0.09 0.08 0.05 0.02 0.03 0.02 0.04 0.05 0.06 0.07 0.08 0.10 0.08 0.08 0.07 0.04 0.05 0.03
0.06 0.03 0.04 0.04 0.02 0.02 0.01 0.00 0.00 0.00 0.01 0.01 0.01 0.02 0.03 0.03 0.04 0.05 0.04 0.02 0.03 0.03
0.00 0.00 0.00 0.01 0.00 0.00 0.00 0.00 0.00 0.00 0.00 0.00 0.01 0.02 0.02 0.02 0.01 0.02 0.01 0.02 0.01 0.01
0.00 0.00 0.00 0.00 0.00 0.00 0.00 0.00 0.00 0.00 0.00 0.00 0.01 0.01 0.02 0.02 0.02 0.03 0.03 0.03 0.03 0.02
0.00 0.00 0.00 0.00 0.00 0.00 0.00 0.00 0.00 0.00 0.00 0.00 0.00 0.00 0.01 0.02 0.02 0.02 0.03 0.02 0.03 0.04
0.00 0.00 0.00 0.00 0.00 0.00 0.00 0.00 0.00 0.00 0.00 0.00 0.00 0.01 0.01 0.01 0.02 0.02 0.01 0.02 0.02 0.03
0.00 0.00 0.00 0.00 0.00 0.00 0.00 0.00 0.00 0.00 0.00 0.00 0.00 0.01 0.01 0.02 0.02 0.02 0.02 0.02 0.02 0.02
0.00 0.00 0.00 0.00 0.00 0.00 0.00 0.00 0.00 0.00 0.00 0.01 0.01 0.01 0.02 0.02 0.02 0.03 0.03 0.03 0.02 0.02
0.00 0.00 0.00 0.00 0.00 0.00 0.00 0.00 0.00 0.00 0.00 0.01 0.02 0.03 0.02 0.02 0.03 0.03 0.03 0.03 0.03 0.03
0.00 0.00 0.00 0.00 0.00 0.00 0.00 0.00 0.00 0.00 0.00 0.01 0.02 0.03 0.02 0.02 0.03 0.04 0.03 0.04 0.05 0.04
0.00 0.00 0.00 0.00 0.00 0.00 0.00 0.00 0.00 0.00 0.00 0.00 0.02 0.04 0.03 0.02 0.02 0.03 0.04 0.06 0.05 0.06
0.00 0.00 0.00 0.00 0.00 0.00 0.00 0.00 0.00 0.00 0.00 0.01 0.01 0.03 0.02 0.04 0.05 0.06 0.07 0.04 0.05 0.07
0.00 0.00 0.00 0.00 0.00 0.00 0.00 0.00 0.00 0.00 0.00 0.03 0.02 0.05 0.03 0.05 0.05 0.08 0.10 0.15 0.09 0.07
0.00 0.00 0.00 0.00 0.00 0.00 0.00 0.00 0.00 0.00 0.01 0.01 0.05 0.04 0.06 0.09 0.05 0.06 0.07 0.07 0.08 0.10

GFSNIL_prec_precacc6_138.txt.gz
Total_Precipitation_Accumulation
0.28 0.51 0.41 0.30 0.22 0.08 0.08 0.02 0.02 0.01 0.02 0.03 0.02 0.04 0.04 0.03 0.01 0.01 0.00 0.01 0.04 0.08
0.67 0.75 0.73 0.63 0.73 0.54 0.34 0.13 0.03 0.03 0.05 0.03 0.03 0.08 0.04 0.02 0.00 0.00 0.00 0.00 0.02 0.05
0.71 0.79 0.78 0.80 0.60 0.53 0.29 0.22 0.13 0.06 0.10 0.23 0.12 0.06 0.01 0.00 0.00 0.00 0.00 0.00 0.00 0.02
0.63 0.63 0.77 0.80 0.64 0.61 0.35 0.19 0.09 0.07 0.09 0.21 0.41 0.25 0.07 0.03 0.02 0.01 0.01 0.01 0.01 0.01
0.38 0.60 0.63 0.61 0.43 0.25 0.33 0.29 0.19 0.20 0.13 0.08 0.05 0.06 0.03 0.02 0.01 0.01 0.01 0.01 0.01 0.01
0.34 0.59 0.63 0.56 0.45 0.43 0.30 0.10 0.08 0.16 0.22 0.18 0.07 0.03 0.01 0.00 0.00 0.00 0.00 0.01 0.01 0.01
0.25 0.34 0.43 0.27 0.33 0.47 0.61 0.30 0.04 0.01 0.03 0.03 0.02 0.01 0.00 0.00 0.00 0.00 0.00 0.00 0.01 0.01
0.14 0.17 0.19 0.15 0.10 0.20 0.20 0.27 0.18 0.04 0.01 0.00 0.00 0.00 0.00 0.00 0.00 0.00 0.00 0.00 0.00 0.01
0.14 0.05 0.05 0.05 0.07 0.09 0.10 0.06 0.04 0.01 0.00 0.00 0.00 0.00 0.00 0.00 0.00 0.00 0.00 0.00 0.01 0.01
0.02 0.01 0.01 0.01 0.02 0.02 0.03 0.01 0.01 0.01 0.00 0.00 0.00 0.00 0.00 0.00 0.00 0.00 0.00 0.01 0.01 0.01
0.02 0.00 0.00 0.00 0.00 0.00 0.00 0.00 0.00 0.00 0.00 0.00 0.00 0.00 0.00 0.00 0.00 0.00 0.00 0.00 0.01 0.02
0.00 0.00 0.00 0.00 0.00 0.00 0.00 0.00 0.00 0.00 0.00 0.00 0.00 0.00 0.00 0.00 0.00 0.00 0.00 0.00 0.01 0.02
0.00 0.00 0.00 0.00 0.00 0.00 0.00 0.00 0.00 0.00 0.00 0.00 0.00 0.00 0.00 0.00 0.00 0.00 0.01 0.01 0.03 0.06
0.00 0.00 0.00 0.00 0.00 0.00 0.00 0.00 0.00 0.00 0.00 0.00 0.00 0.00 0.00 0.00 0.00 0.01 0.02 0.01 0.01 0.03

GFSNIL_prec_precacc6_141.txt.gz
Total_Precipitation_Accumulation
0.12 0.18 0.21 0.24 0.21 0.16 0.16 0.29 0.43 0.43 0.08 0.01 0.01 0.02 0.04 0.05 0.02 0.00 0.00 0.00 0.01 0.02
0.31 0.29 0.40 0.41 0.71 0.73 0.46 0.40 0.49 0.80 0.35 0.04 0.02 0.09 0.06 0.06 0.03 0.01 0.00 0.00 0.00 0.01
0.44 0.44 0.41 0.55 0.62 0.94 0.98 0.72 0.63 0.70 0.41 0.30 0.14 0.11 0.05 0.04 0.02 0.01 0.00 0.00 0.00 0.00
0.55 0.51 0.63 0.68 0.59 0.92 1.22 1.05 0.82 0.65 0.53 0.36 0.60 0.61 0.29 0.15 0.10 0.05 0.02 0.01 0.00 0.00
0.40 0.59 0.60 0.61 0.59 0.36 1.21 1.51 1.42 1.30 0.78 0.26 0.28 0.46 0.48 0.29 0.27 0.19 0.10 0.03 0.03 0.01
0.39 0.62 0.65 0.66 0.66 0.74 0.63 1.12 1.27 1.44 1.16 0.40 0.22 0.18 0.15 0.21 0.14 0.14 0.12 0.04 0.02 0.02
0.49 0.41 0.53 0.67 0.76 0.97 1.07 1.01 0.92 1.01 0.66 0.28 0.11 0.09 0.09 0.08 0.07 0.06 0.04 0.01 0.01 0.01
0.42 0.41 0.27 0.29 0.40 0.71 0.71 0.80 1.02 1.03 0.77 0.30 0.06 0.03 0.03 0.03 0.03 0.04 0.02 0.01 0.00 0.00
0.21 0.17 0.19 0.23 0.21 0.28 0.46 0.54 0.49 0.58 0.72 0.66 0.24 0.07 0.03 0.02 0.01 0.00 0.00 0.00 0.00 0.00
0.04 0.05 0.04 0.08 0.10 0.13 0.19 0.27 0.31 0.28 0.23 0.23 0.21 0.16 0.08 0.02 0.00 0.00 0.00 0.00 0.00 0.00
0.02 0.01 0.01 0.01 0.00 0.00 0.00 0.01 0.04 0.06 0.09 0.10 0.05 0.03 0.03 0.01 0.00 0.00 0.00 0.00 0.00 0.00
0.00 0.00 0.00 0.00 0.00 0.00 0.00 0.00 0.00 0.00 0.00 0.00 0.01 0.00 0.00 0.00 0.00 0.00 0.00 0.00 0.00 0.01
0.00 0.00 0.00 0.00 0.00 0.00 0.00 0.00 0.00 0.00 0.00 0.00 0.00 0.00 0.00 0.00 0.00 0.00 0.00 0.00 0.00 0.01
0.00 0.00 0.00 0.00 0.00 0.00 0.00 0.00 0.00 0.00 0.00 0.00 0.00 0.00 0.00 0.00 0.00 0.00 0.00 0.00 0.00 0.00

GFSNIL_prec_precacc6_144.txt.gz
Total_Precipitation_Accumulation
0.00 0.00 0.00 0.03 0.15 0.14 0.16 0.29 0.43 0.50 0.54 0.52 0.66 0.77 0.32 0.15 0.07 0.05 0.00 0.00 0.00 0.00
0.00 0.00 0.00 0.01 0.30 0.46 0.27 0.33 0.49 0.85 1.05 0.97 1.09 0.91 1.05 0.45 0.13 0.07 0.02 0.00 0.00 0.00
0.01 0.01 0.00 0.01 0.19 0.53 0.78 0.56 0.55 0.76 0.88 1.13 1.06 1.27 1.08 0.64 0.22 0.09 0.09 0.04 0.01 0.03
0.12 0.07 0.05 0.07 0.15 0.44 0.94 0.89 0.74 0.60 0.81 0.70 0.60 0.86 0.77 0.65 0.27 0.17 0.14 0.10 0.08 0.05
0.29 0.25 0.19 0.17 0.28 0.20 0.94 1.25 1.24 1.11 0.88 1.35 1.22 1.01 0.96 0.81 0.47 0.30 0.20 0.13 0.11 0.07
0.28 0.25 0.25 0.34 0.42 0.40 0.48 1.10 1.21 1.40 1.42 1.04 1.44 1.04 0.79 0.75 0.52 0.33 0.31 0.22 0.12 0.07
0.50 0.34 0.33 0.59 0.67 0.66 0.53 0.75 0.90 1.09 1.16 1.01 0.81 1.06 0.91 0.75 0.46 0.18 0.17 0.21 0.24 0.17
0.43 0.58 0.37 0.33 0.51 0.63 0.56 0.54 0.86 1.05 1.08 1.16 0.84 0.56 0.71 0.81 0.45 0.19 0.09 0.07 0.09 0.15
0.13 0.27 0.31 0.34 0.26 0.26 0.39 0.53 0.54 0.68 0.97 1.15 1.25 0.84 0.56 0.51 0.48 0.32 0.09 0.04 0.04 0.05
0.03 0.05 0.04 0.07 0.10 0.12 0.19 0.31 0.42 0.46 0.45 0.55 0.77 0.99 0.85 0.62 0.45 0.35 0.15 0.03 0.01 0.01
0.00 0.00 0.00 0.00 0.00 0.00 0.01 0.02 0.06 0.13 0.20 0.25 0.29 0.35 0.51 0.58 0.49 0.36 0.17 0.05 0.02 0.01
0.01 0.00 0.00 0.00 0.00 0.00 0.00 0.00 0.00 0.00 0.01 0.03 0.06 0.09 0.12 0.11 0.15 0.16 0.12 0.07 0.04 0.02
0.01 0.00 0.00 0.00 0.00 0.00 0.00 0.00 0.00 0.00 0.00 0.01 0.02 0.01 0.01 0.02 0.01 0.01 0.02 0.01 0.01 0.01
0.00 0.01 0.00 0.00 0.00 0.00 0.00 0.00 0.00 0.00 0.00 0.00 0.00 0.00 0.00 0.00 0.00 0.01 0.00 0.00 0.00 0.00

GFSNIL_prec_precacc6_147.txt.gz
Total_Precipitation_Accumulation
0.00 0.00 0.00 0.00 0.00 0.02 0.02 0.01 0.01 0.08 0.46 0.51 0.67 0.85 0.59 0.55 0.85 0.83 0.57 0.32 0.22 0.12
0.00 0.00 0.00 0.00 0.00 0.00 0.01 0.01 0.00 0.06 0.71 0.94 1.09 0.90 1.16 0.84 0.46 0.78 0.78 0.49 0.29 0.16
0.00 0.00 0.00 0.00 0.00 0.00 0.01 0.01 0.02 0.10 0.54 1.05 1.03 1.21 1.09 1.19 0.70 0.36 0.59 0.52 0.28 0.23
0.03 0.04 0.04 0.04 0.03 0.02 0.01 0.01 0.02 0.02 0.36 0.54 0.41 0.49 0.54 0.70 0.70 0.56 0.40 0.42 0.43 0.30
0.13 0.16 0.18 0.16 0.13 0.09 0.06 0.05 0.03 0.03 0.25 1.18 0.99 0.61 0.51 0.55 0.40 0.62 0.58 0.51 0.44 0.34
0.16 0.18 0.19 0.24 0.29 0.22 0.24 0.26 0.15 0.17 0.51 0.85 1.31 0.89 0.65 0.58 0.75 0.50 0.77 0.81 0.62 0.44
0.26 0.31 0.29 0.27 0.39 0.43 0.37 0.35 0.41 0.43 0.75 0.87 0.74 0.98 0.82 0.67 0.53 0.62 0.43 0.50 0.71 0.60
0.15 0.38 0.35 0.28 0.34 0.42 0.37 0.31 0.29 0.31 0.56 1.03 0.85 0.57 0.69 0.82 0.58 0.53 0.59 0.42 0.35 0.38
0.05 0.15 0.19 0.20 0.19 0.17 0.16 0.21 0.32 0.38 0.52 0.71 1.19 0.91 0.59 0.54 0.65 0.62 0.53 0.53 0.41 0.28
0.00 0.01 0.00 0.01 0.02 0.02 0.04 0.08 0.20 0.36 0.46 0.53 0.76 1.01 0.90 0.70 0.58 0.56 0.59 0.58 0.51 0.36
0.00 0.00 0.00 0.00 0.00 0.00 0.00 0.01 0.02 0.07 0.13 0.19 0.29 0.39 0.56 0.71 0.72 0.64 0.56 0.51 0.52 0.51
0.01 0.00 0.00 0.00 0.00 0.00 0.00 0.00 0.00 0.00 0.01 0.03 0.06 0.10 0.14 0.16 0.25 0.39 0.46 0.45 0.44 0.44
0.01 0.01 0.00 0.00 0.00 0.00 0.00 0.00 0.00 0.00 0.00 0.01 0.02 0.01 0.02 0.03 0.04 0.07 0.11 0.15 0.17 0.19
0.00 0.02 0.00 0.00 0.00 0.00 0.00 0.00 0.00 0.00 0.00 0.00 0.01 0.00 0.00 0.00 0.00 0.02 0.03 0.03 0.04 0.04

GFSNIL_prec_precacc6_150.txt.gz
Total_Precipitation_Accumulation
0.00 0.00 0.01 0.01 0.01 0.02 0.03 0.02 0.00 0.00 0.00 0.00 0.01 0.09 0.29 0.45 0.81 0.79 0.60 0.50 0.49 0.51
0.00 0.00 0.00 0.01 0.01 0.01 0.02 0.03 0.01 0.00 0.00 0.00 0.00 0.00 0.13 0.45 0.35 0.73 0.76 0.58 0.50 0.37
0.00 0.00 0.00 0.00 0.00 0.00 0.01 0.02 0.03 0.01 0.00 0.00 0.00 0.00 0.06 0.59 0.51 0.28 0.50 0.48 0.40 0.53
0.01 0.01 0.00 0.00 0.01 0.01 0.01 0.02 0.02 0.01 0.00 0.00 0.00 0.00 0.00 0.18 0.52 0.44 0.28 0.32 0.36 0.31
0.01 0.00 0.01 0.01 0.03 0.05 0.04 0.04 0.03 0.03 0.02 0.01 0.01 0.01 0.01 0.01 0.19 0.50 0.48 0.42 0.37 0.40
0.00 0.01 0.03 0.04 0.11 0.14 0.11 0.18 0.14 0.07 0.05 0.04 0.03 0.03 0.02 0.04 0.38 0.31 0.58 0.64 0.52 0.45
0.01 0.04 0.07 0.08 0.16 0.27 0.31 0.33 0.42 0.37 0.28 0.20 0.11 0.07 0.07 0.06 0.18 0.51 0.31 0.31 0.48 0.45
0.00 0.04 0.06 0.09 0.13 0.29 0.32 0.31 0.30 0.29 0.33 0.37 0.33 0.28 0.18 0.13 0.25 0.46 0.57 0.37 0.28 0.27
0.00 0.00 0.02 0.03 0.08 0.11 0.14 0.17 0.26 0.34 0.42 0.48 0.50 0.50 0.35 0.25 0.30 0.38 0.49 0.53 0.39 0.26
0.00 0.00 0.00 0.00 0.00 0.01 0.01 0.02 0.08 0.20 0.30 0.40 0.48 0.50 0.47 0.41 0.36 0.37 0.55 0.61 0.54 0.39
0.00 0.00 0.00 0.00 0.00 0.00 0.00 0.00 0.00 0.00 0.02 0.06 0.14 0.26 0.33 0.43 0.52 0.54 0.58 0.58 0.59 0.56
0.01 0.00 0.00 0.00 0.00 0.00 0.00 0.00 0.00 0.00 0.00 0.00 0.01 0.02 0.05 0.09 0.21 0.36 0.56 0.63 0.60 0.54
0.01 0.01 0.00 0.00 0.00 0.00 0.00 0.00 0.00 0.00 0.00 0.00 0.01 0.01 0.01 0.02 0.03 0.06 0.10 0.16 0.20 0.26
0.00 0.01 0.00 0.00 0.00 0.00 0.00 0.00 0.00 0.00 0.00 0.00 0.01 0.00 0.00 0.00 0.00 0.02 0.03 0.04 0.05 0.06

GFSNIL_prec_precacc6_156.txt.gz
Total_Precipitation_Accumulation
0.00 0.00 0.00 0.00 0.00 0.01 0.00 0.00 0.00 0.00 0.00 0.00 0.00 0.00 0.00 0.00 0.00 0.01 0.02 0.04 0.04 0.04
0.00 0.00 0.00 0.00 0.00 0.01 0.01 0.01 0.00 0.00 0.00 0.00 0.00 0.00 0.00 0.00 0.00 0.01 0.01 0.03 0.03 0.03
0.00 0.00 0.00 0.00 0.00 0.00 0.01 0.01 0.01 0.00 0.00 0.00 0.00 0.00 0.00 0.00 0.00 0.00 0.01 0.03 0.04 0.04
0.00 0.00 0.00 0.00 0.00 0.00 0.00 0.00 0.00 0.01 0.00 0.00 0.00 0.00 0.00 0.00 0.00 0.00 0.00 0.01 0.03 0.05
0.00 0.00 0.00 0.00 0.00 0.00 0.00 0.00 0.00 0.00 0.00 0.00 0.00 0.00 0.00 0.00 0.00 0.00 0.00 0.01 0.01 0.02
0.00 0.00 0.00 0.00 0.00 0.00 0.00 0.00 0.00 0.00 0.01 0.01 0.02 0.01 0.01 0.00 0.00 0.01 0.01 0.01 0.01 0.01
0.00 0.00 0.00 0.00 0.00 0.00 0.00 0.00 0.00 0.01 0.01 0.02 0.02 0.01 0.01 0.01 0.02 0.02 0.03 0.03 0.03 0.03
0.00 0.00 0.00 0.00 0.00 0.00 0.00 0.00 0.00 0.00 0.00 0.01 0.02 0.04 0.06 0.05 0.05 0.07 0.07 0.07 0.06 0.07
0.00 0.00 0.00 0.00 0.00 0.00 0.00 0.00 0.00 0.00 0.00 0.01 0.02 0.02 0.06 0.10 0.13 0.12 0.13 0.16 0.15 0.12
0.00 0.00 0.00 0.00 0.00 0.00 0.00 0.00 0.00 0.00 0.00 0.01 0.02 0.02 0.06 0.13 0.14 0.15 0.16 0.22 0.19 0.19
0.00 0.00 0.00 0.00 0.00 0.00 0.00 0.00 0.00 0.00 0.00 0.00 0.00 0.00 0.02 0.06 0.08 0.18 0.21 0.17 0.25 0.25
0.00 0.00 0.00 0.00 0.00 0.00 0.00 0.00 0.00 0.00 0.00 0.00 0.00 0.00 0.00 0.00 0.01 0.02 0.09 0.15 0.17 0.20
0.00 0.00 0.00 0.00 0.00 0.00 0.00 0.00 0.00 0.00 0.00 0.00 0.00 0.00 0.00 0.00 0.00 0.00 0.00 0.01 0.03 0.05
0.00 0.00 0.00 0.00 0.00 0.00 0.00 0.00 0.00 0.00 0.00 0.00 0.00 0.00 0.00 0.00 0.00 0.00 0.00 0.00 0.01 0.02